Regional Weather Roundup
Issued by NWS

Home | Current Version | Previous Version | Text Only | Print | Product List | Glossary Off
Versions: 1 2 3 4 5 6 7 8 9 10 11 12 13 14 15 16 17 18 19 20 21 22 23 24 25 26 27 28 29 30 31 32 33 34 35 36 37 38 39 40 41 42 43 44 45 46 47 48 49 50

801
ASUS44 KMEG 032300
RWRTN
TENNESSEE HOURLY STATE WEATHER ROUNDUP
NATIONAL WEATHER SERVICE MEMPHIS TN
500 PM CST SAT DEC 03 2016

TNZ002-004-019-021-049-052-054-088>092-040000-
WEST TENNESSEE

CITY           SKY/WX    TMP DP  RH WIND       PRES   REMARKS
MEMPHIS INTL   LGT RAIN  44  42  93 E10       30.21S
NWS MEMPHIS      N/A     43 N/A N/A MISG        N/A
JACKSON        LGT RAIN  43  32  65 E5        30.23F
DYERSBURG      CLOUDY   N/A N/A N/A E3        30.24S
PARIS          PTCLDY    39  30  70 CALM      30.25F
$$

TNZ008-025-027-028-033-062-065-066-040000-
NORTH MIDDLE TENNESSEE

CITY           SKY/WX    TMP DP  RH WIND       PRES   REMARKS
NASHVILLE      CLOUDY    44  31  60 E7        30.27F
CLARKSVILLE    CLOUDY    42  31  64 E6        30.27F
SMYRNA         CLOUDY    43  32  65 NE5       30.27F
CROSSVILLE     PTCLDY    40  30  67 NE3       30.23F
$$

TNZ061-075-076-078-094-096-097-040000-
SOUTH MIDDLE TENNESSEE

CITY           SKY/WX    TMP DP  RH WIND       PRES   REMARKS
TULLAHOMA      CLOUDY    41  34  75 CALM      30.24S
WINCHESTER     CLOUDY    41  36  81 CALM      30.24S
SHELBYVILLE    CLOUDY    41  37  87 N3        30.26S
$$

TNZ017-018-042-046-047-040000-
NORTHEAST TENNESSEE

CITY           SKY/WX    TMP DP  RH WIND       PRES   REMARKS
TRI CITIES     CLOUDY    41  29  62 N3        30.26F
$$

TNZ012-013-036-069-073-074-040000-
CENTRAL EAST TENNESSEE

CITY           SKY/WX    TMP DP  RH WIND       PRES   REMARKS
KNOXVILLE      CLOUDY    44  32  62 NE7       30.24F
OAK RIDGE      CLOUDY    44  31  60 E5        30.27F
GATLINBURG     CLEAR     41  30  65 CALM      30.25F
$$

TNZ083-085-099-040000-
SOUTHEAST TENNESSEE

CITY           SKY/WX    TMP DP  RH WIND       PRES   REMARKS
CHATTANOOGA    CLOUDY    46  33  60 NE6       30.26S
$$

SKY/WX REPORTED AS FAIR MEANS FEW OR NO CLOUDS BELOW
12 THOUSAND FEET.





USA.gov is the U.S. government's official web portal to all federal, state and local government web resources and services.